Location: Dos Palmas
(32.4468°N, 116.8732°W)
Time: 09:03:46
(UTC+00:00)

ISS - Visible Passes

Search period start: 08 December 2022 00:00
Search period end: 18 December 2022 00:00
Orbit: 414 x 420 km, 51.6° (Epoch: 08 December)

Date Brightness Start Highest point End Pass type
(mag) Time Alt. Az. Time Alt. Az. Time Alt. Az.
08 Dec -1.8 02:15:05 10° WNW 02:18:03 30° SW 02:21:00 10° SSE visible
09 Dec -3.3 01:26:39 10° NW 01:29:56 62° SW 01:33:13 10° SE visible
11 Dec -0.5 01:27:47 10° W 01:30:01 17° SW 01:32:14 10° S visible
14 Dec -0.5 14:05:52 10° S 14:08:13 18° SE 14:10:34 10° E visible
16 Dec -3.3 14:04:46 10° SW 14:08:05 66° SE 14:11:26 10° NE visible
17 Dec -1.9 13:16:48 10° SSW 13:19:49 31° SE 13:22:51 10° ENE visible
